Weather History for Raleigh-Durham Airport, NC

Change the Weather History Date:

Thursday, February 10, 2011

  Actual Average Record
Temperature  
Mean Temperature 36 °F 44 °F  
Max Temperature 46 °F 54 °F 75 °F (1938)
Min Temperature 26 °F 33 °F 8 °F (1979)
Degree Days  
Heating Degree Days 29 21  
Month to date heating degree days 237 222  
Since 1 July heating degree days 2504 2219  
Cooling Degree Days 0 0  
Month to date cooling degree days 0 0  
Year to date cooling degree days 0 0  
Moisture  
Dew Point 20 °F    
Average Humidity 59    
Maximum Humidity 92    
Minimum Humidity 25    
Precipitation  
Precipitation 0.03 in 0.11 in 1.75 in (1946)
Month to date precipitation 1.58 1.10  
Year to date precipitation 2.95 4.60  
Snow  
Snow 0.40 in 0.10 in 4.50 in (1973)
Month to date snowfall 0.4 0.8  
Since 1 July snowfall 9.0 4.4  
Snow Depth 0.00 in    
Sea Level Pressure  
Sea Level Pressure 30.09 in    
Wind  
Wind Speed 4 mph (NNE)    
Max Wind Speed 14 mph    
Max Gust Speed 20 mph    
Visibility 8 miles    
Events Snow    
T = Trace of Precipitation, MM = Missing Value Source: NWS Daily Summary

Daily Weather History Graph

Daily Weather History Graph

Search for Another Location

Airport:

Trip Planner

Search our weather history database for the weather conditions in past years. The results will help you decide how hot, cold, wet, or windy it might be!

Date:

Astronomy

Feb. 10, 2011 Rise Set
Actual Time 7:07 AM EST 5:51 PM EST
Civil Twilight 6:41 AM EST 6:17 PM EST
Nautical Twilight 6:11 AM EST 6:48 PM EST
Astronomical Twilight 5:41 AM EST 7:17 PM EST
Moon 10:36 AM EST (2/10) 12:10 AM EST (2/10)
Length of Visible Light 11h 36m
Length of Day
10h 43m
Waxing Crescent, 44% of the Moon is Illuminated
Feb 10
Waxing Crescent
Feb 11
First Quarter
Feb 18
Full
Feb 24
Last Quarter
Mar 4
New

Hourly Weather History & Observations

Time (EST) Temp. Windchill Dew Point Humidity Pressure Visibility Wind Dir Wind Speed Gust Speed Precip Events Conditions
12:03 AM 37.4 °F - 17.6 °F 45% 30.06 in 10.0 mi Calm Calm - 0.00 in   Overcast
12:51 AM 36.0 °F 28.5 °F 18.0 °F 48% 30.04 in 10.0 mi SE 10.4 mph - 0.00 in   Overcast
1:51 AM 36.0 °F 31.1 °F 18.0 °F 48% 30.00 in 10.0 mi NNE 5.8 mph - N/A   Overcast
2:51 AM 36.0 °F 33.3 °F 16.0 °F 44% 30.00 in 10.0 mi North 3.5 mph - 0.00 in Snow Light Snow
3:51 AM 35.1 °F 30.1 °F 17.1 °F 48% 29.99 in 10.0 mi NNE 5.8 mph - 0.00 in   Overcast
4:51 AM 33.1 °F 28.7 °F 24.1 °F 70% 30.00 in 10.0 mi NNE 4.6 mph - 0.00 in Snow Light Snow
5:51 AM 32.0 °F - 27.0 °F 82% 30.04 in 3.0 mi Calm Calm - 0.00 in Snow Light Snow
6:21 AM 32.0 °F - 26.6 °F 80% 30.04 in 1.5 mi Calm Calm - 0.01 in Snow Light Snow
6:51 AM 30.9 °F - 28.0 °F 89% 30.06 in 1.5 mi Calm Calm - 0.01 in Snow Light Snow
7:02 AM 30.2 °F - 28.4 °F 93% 30.05 in 1.2 mi Calm Calm - 0.01 in Snow Light Snow
7:13 AM 30.2 °F 26.7 °F 28.4 °F 93% 30.05 in 1.5 mi Variable 3.5 mph - 0.01 in Snow Light Snow
7:41 AM 30.2 °F 26.7 °F 28.4 °F 93% 30.05 in 6.0 mi NNE 3.5 mph - 0.02 in Snow Light Snow
7:51 AM 30.9 °F 27.5 °F 28.0 °F 89% 30.07 in 6.0 mi Variable 3.5 mph - 0.02 in Snow Light Snow
7:55 AM 30.2 °F - 28.4 °F 93% 30.06 in 7.0 mi Calm Calm - 0.00 in   Overcast
8:51 AM 32.0 °F 26.4 °F 27.0 °F 82% 30.06 in 10.0 mi North 5.8 mph - 0.00 in   Overcast
9:51 AM 34.0 °F 28.0 °F 24.1 °F 67% 30.09 in 10.0 mi North 6.9 mph 19.6 mph N/A   Mostly Cloudy
10:51 AM 37.9 °F 32.1 °F 21.9 °F 53% 30.12 in 10.0 mi North 8.1 mph - N/A   Scattered Clouds
11:51 AM 39.9 °F 35.1 °F 19.9 °F 45% 30.12 in 10.0 mi Variable 6.9 mph - N/A   Partly Cloudy
12:51 PM 42.1 °F 36.1 °F 18.0 °F 38% 30.11 in 10.0 mi NNE 10.4 mph - N/A   Partly Cloudy
1:51 PM 44.1 °F 41.5 °F 17.1 °F 34% 30.08 in 10.0 mi Variable 4.6 mph - N/A   Partly Cloudy
2:51 PM 44.1 °F 40.8 °F 10.9 °F 26% 30.07 in 10.0 mi Variable 5.8 mph - N/A   Scattered Clouds
3:51 PM 45.0 °F 42.6 °F 10.9 °F 25% 30.08 in 10.0 mi Variable 4.6 mph - N/A   Scattered Clouds
4:51 PM 44.1 °F 40.8 °F 10.0 °F 25% 30.09 in 10.0 mi NE 5.8 mph - N/A   Partly Cloudy
5:51 PM 39.9 °F 37.8 °F 10.9 °F 31% 30.10 in 10.0 mi NNW 3.5 mph - N/A   Partly Cloudy
6:51 PM 39.0 °F - 10.9 °F 32% 30.14 in 10.0 mi Calm Calm - N/A   Partly Cloudy
7:51 PM 35.1 °F - 10.9 °F 37% 30.17 in 10.0 mi Calm Calm - N/A   Partly Cloudy
8:51 PM 32.0 °F - 12.9 °F 45% 30.19 in 10.0 mi Calm Calm - N/A   Partly Cloudy
9:51 PM 28.9 °F 23.9 °F 15.1 °F 56% 30.21 in 10.0 mi SE 4.6 mph - N/A   Clear
10:51 PM 30.0 °F 26.5 °F 14.0 °F 51% 30.22 in 10.0 mi South 3.5 mph - N/A   Clear
11:51 PM 30.0 °F - 21.0 °F 69% 30.21 in 10.0 mi Calm Calm - N/A   Clear